Погода в Спас-Заулке

Россия / Московская область     56°28′29″N   36°34′41″E
темп.,
°C
ветер,
м/с
пор.,
м/с
влажн.,
%
обл.,
%
осадки,
мм/ч
давл.,
гПа
погр.,
м
1 августа, вс
вс100:00+15юз2782100 0.0 1008141
03:00+14юз2687100 0.0 1009117
06:00+15ююз2583100 0.0 1009121
09:00+21юз3656100 0.0 1010449
12:00+17ююз3794100 1.3 1011409
15:00+20ю4883100 2.0 1010585
18:00+23юз3770100 0.0 10081177
21:00+18ююз379234 0.1 1009154
2 августа, пн
пн200:00+17ююз2697100 0.1 1009116
03:00+16ююз2697100 0.1 1009116
06:00+17ююз249596 0.0 100997
09:00+23ююв24679 0.0 1007552
12:00+28ююв4651100 0.0 10051391
15:00+29ююз61047100 0.0 10032241
18:00+28ююз4105744 0.0 10011450
21:00+21юз61473100 0.2 1002723
3 августа, вт
вт300:00+18юз51394100 1.4 1001530
03:00+17юз4996100 1.8 1002740
06:00+15з3795100 0.2 1004580
09:00+16зюз2688100 0.3 1006491
12:00+19з3569100 0.1 10071054
15:00+21зюз456519 1.4 10071256
18:00+18зюз3888100 1.6 1008469
21:00+15юз369129 2.1 1009103
4 августа, ср
ср400:00+13зюз36940 0.0 1010118
03:00+12зюз23982 0.0 101273
06:00+12зсз25963 0.0 1014141
09:00+17сз23660 0.0 1015601
12:00+22сз234297 0.0 10152051
15:00+20ссз1348100 0.0 1016972
18:00+21ю244779 0.0 1016711
21:00+16зюз236543 0.0 101669
5 августа, чт
чт500:00+12ссз017899 0.0 101810
03:00+11св1176100 0.0 101810
06:00+12в117292 0.0 101816
09:00+19вюв125294 0.0 1018433
12:00+24ююв223741 0.0 10172071
15:00+25ю233493 0.0 10162675
18:00+21юв235580 0.0 1016103
21:00+18ююв116094 0.0 101611